Weather in Ilovay-Dmitriyevskoye

Russia / Tambov Oblast     53°11′56″N   40°20′13″E
temp.,
°C
wind,
m/s
gust,
m/s
humid.,
%
clouds,
%
prec.,
mm/h
press.,
hPa
HPBL,
m
19 september, sun
sun1900:00+8e51052100 0.0 1022470
03:00+8ese51157100 0.0 1021658
06:00+6e61283100 1.3 1021455
09:00+6ese71385100 1.8 1021434
12:00+7e81587100 1.0 1020534
15:00+7ese71486100 2.1 1019632
18:00+8ese81588100 2.6 1018675
21:00+7ese101892100 8.5 1016710
20 september, mon
mon2000:00+8ese102092100 7.8 1014763
03:00+8ese91691100 12.3 10131013
06:00+7ese81593100 2.7 1013843
09:00+7ese81493100 2.9 1013785
12:00+7ese91590100 0.0 1013691
15:00+7ese91487100 0.1 1013675
18:00+8ese91586100 0.1 1012695
21:00+8se81592100 4.3 1013733
21 september, tue
tue2100:00+8ese61192100 0.3 1013506
03:00+9se51094100 0.6 1013467
06:00+9se4895100 1.4 1013399
09:00+9ese4795100 1.8 1013292
12:00+12sse5783100 0.1 1013754
15:00+13sse4574100 0.6 1012906
18:00+11ese238395 0.6 101250
21:00+9wnw359280 0.8 1013160
22 september, wed
wed2200:00+9nw3593100 0.0 1013197
03:00+9nw2289100 0.0 101398
06:00+9wnw2287100 0.0 101353
09:00+9nw228299 0.1 1015227
12:00+10nw227695 0.0 1015376
15:00+12nne226444 0.0 1015927
18:00+11nnw227270 0.0 101634
21:00+10n237896 0.0 101674
23 september, thu
thu2300:00+10nw1180100 0.0 101621
03:00+10wsw1182100 0.0 101622
06:00+9nnw1182100 0.0 101513
09:00+11n0079100 0.0 1015131
12:00+13sw2268100 0.0 1015698
15:00+14ssw2355100 0.1 10141200
18:00+13e1159100 0.0 101410
21:00+12nne1263100 0.0 101320